Regional Weather Roundup
Issued by NWS

Home | Current Version | Previous Version | Text Only | Print | Product List | Glossary Off
Versions: 1 2 3 4 5 6 7 8 9 10 11 12 13 14 15 16 17 18 19 20 21 22 23 24 25 26 27 28 29 30 31 32 33 34 35 36 37 38 39 40 41 42 43 44 45 46 47 48 49 50

000
ASUS43 KOAX 221702
RWRNE

WEATHER ROUNDUP FOR NEBRASKA
NATIONAL WEATHER SERVICE OMAHA NE
1200 PM CDT MON MAY 22 2017

NOTES: SATELLITE DATA IS BEING USED TO AUGMENT CLOUD COVER ABOVE
       12000 FEET.
       "FAIR" INDICATES FEW OR NO CLOUDS BELOW 12,000 FEET WITH NO
       SIGNIFICANT WEATHER AND/OR OBSTRUCTIONS TO VISIBILITY.

  * THESE STATIONS DO NOT REPORT WEATHER SUCH AS RAIN...SNOW OR FOG.

NEZ001>004-019>022-054>056-221800-
NEBRASKA PANHANDLE

CITY           SKY/WX    TMP DP  RH WIND       PRES   REMARKS
SCOTTSBLUFF    CLOUDY    57  42  57 NW13      30.09F
ALLIANCE       CLOUDY    59  40  49 NW21G31   30.05F
CHADRON        PTSUNNY   59  44  57 NW12      30.03F
GORDON         FAIR      59  42  54 N13G21    30.03S
KIMBALL        MOSUNNY   62  34  34 N24       30.11S
SIDNEY         MOSUNNY   62  39  42 NW18G29   30.09S
$$

NEZ057>060-069>072-079>082-221800-
SOUTHWEST NEBRASKA

CITY           SKY/WX    TMP DP  RH WIND       PRES   REMARKS
NORTH PLATTE   SUNNY     68  44  42 W16       30.00F
IMPERIAL       SUNNY     67  37  33 NW17      30.04F
LEXINGTON      SUNNY     68  46  45 NW13G18   29.99F
MCCOOK         SUNNY     69  46  43 W10       30.02F
OGALLALA       PTSUNNY   64  39  39 NW15G25   30.03F
$$

NEZ005>010-023>029-035>040-094-221800-
NORTH CENTRAL NEBRASKA

CITY           SKY/WX    TMP DP  RH WIND       PRES   REMARKS
VALENTINE      PTSUNNY   55  48  77 W8        30.00F
AINSWORTH      DRIZZLE   53  48  83 W10       30.01F
BROKEN BOW     SUNNY     68  44  42 NW15G25   29.97F
O`NEILL        MOSUNNY   61  44  52 NW14G20   29.96S
ORD            SUNNY     68  45  43 NW13G18   29.93F
THEDFORD       CLOUDY    61  44  52 N14       30.02S
$$

NEZ041-046>049-061>064-073>077-083>087-221800-
SOUTH CENTRAL NEBRASKA

CITY           SKY/WX    TMP DP  RH WIND       PRES   REMARKS
GRAND ISLAND   SUNNY     69  45  41 NW12      29.97F
AURORA         CLOUDY    67  46  46 W12       29.97S
HASTINGS       MOSUNNY   67  44  43 W9        30.00S
HEBRON         CLOUDY    61  54  78 SW10      30.01F
HOLDREGE       CLOUDY    67  43  42 NW9       30.00F
KEARNEY *      SUNNY     66  43  42 NW10G16   29.99F
$$

NEZ011>018-030>034-042>045-221800-
NORTHEAST NEBRASKA

CITY           SKY/WX    TMP DP  RH WIND       PRES   REMARKS
NORFOLK        SUNNY     69  42  37 W18G25    29.90F
ALBION         SUNNY     70  42  37 NW15G24   29.93S
BLAIR          CLOUDY    67  49  51 W9G17     29.93S
FREMONT        MOSUNNY   69  50  50 W6        29.93F
TEKAMAH        SUNNY     70  48  45 W15       29.90F
WAYNE          SUNNY     69  45  41 NW17G28   29.90S
$$

NEZ050>053-065>068-078-088>093-221800-
SOUTHEAST NEBRASKA

CITY           SKY/WX    TMP DP  RH WIND       PRES   REMARKS
LINCOLN        MOSUNNY   70  49  47 W10       29.96F
OMAHA EPPLEY   CLOUDY    70  49  47 SW9       29.92F
BEATRICE       CLOUDY    63  56  79 SW14      30.00F
FALLS CITY     LGT RAIN  60  56  86 SW15G25   30.01S
NEBRASKA CITY  PTSUNNY   64  49  58 SW14      29.98S
PLATTSMOUTH    CLOUDY    67  44  43 SW8G16    29.96S
$$

NEZ044-045-051>053-067-221800-
OMAHA AREA

CITY           SKY/WX    TMP DP  RH WIND       PRES   REMARKS
OMAHA EPPLEY   CLOUDY    70  49  47 SW9       29.92F
BLAIR          CLOUDY    67  49  51 W9G17     29.93S
FREMONT        MOSUNNY   69  50  50 W6        29.93F
MILLARD        MOSUNNY   70  52  52 NW8       29.93F
OFFUTT AFB     PTSUNNY   67  51  56 SW8       29.93F
PLATTSMOUTH    CLOUDY    67  44  43 SW8G16    29.96S
WAHOO          FAIR      69  44  40 W10       29.93F
$$




USA.gov is the U.S. government's official web portal to all federal, state and local government web resources and services.